Hourly Weather Roundup
Issued by NWS Central Illinois

Home | Current Version | Previous Version | Text Only | Print | Product List | Glossary On
Versions: 1 2 3 4 5 6 7 8 9 10 11 12 13 14 15 16 17 18 19 20 21 22 23 24 25 26 27 28 29 30 31 32 33 34 35 36 37 38 39 40 41 42 43 44 45 46 47 48 49 50
000
NZUS43 KILX 220910
HWRILX

Area Weather Roundup
National Weather Service Lincoln IL
400 AM CDT THU JUN 22 2017

NOTE:  "FAIR" indicates few or no clouds below 12,000 feet, with
       no sigificant weather and/or obstructions to visibility.


CITY           SKY/WX    TMP DP  RH WIND       PRES   REMARKS
Bloomington    CLOUDY    74  67  78 S15       29.90F
Champaign      CLOUDY    72  68  87 S8        29.93S
Danville       PTCLDY    73  68  86 S9        29.91F
Decatur        MOCLDY    71  67  87 S7        29.91F
Effingham      CLEAR     72  69  90 SE5       29.94F
Flora          CLOUDY    72  68  89 S5        29.94F
Galesburg      CLOUDY    73  65  76 S10       29.84F
Jacksonville   CLOUDY    73  67  81 S8        29.88F
Lacon          CLOUDY    77  68  74 SW7       29.84F
Lawrenceville  CLOUDY    70  67  90 S7        29.96F
Litchfield     CLEAR     70  68  94 S8        29.91F
$$


CITY           SKY/WX    TMP DP  RH WIND       PRES   REMARKS
Lincoln        CLOUDY    75  70  83 S8        29.89F
Macomb         CLEAR     73  66  80 S8        29.87F
Mattoon        PTCLDY    73  69  87 S6        29.92F
Mt Carmel AP   MOCLDY    71  66  86 SE5       29.96S
Olney-Noble AP CLOUDY    71  71 100 SE3       29.95F
Paris AP       PTCLDY    71  68  92 S5        29.95F
Peoria         CLOUDY    76  68  76 S10       29.86F
Pontiac        CLOUDY    77  69  77 SW9       29.88F
Rantoul        CLOUDY    76  70  83 S8        29.91F
Robinson       MOCLDY    70  67  91 S5        29.95F
Springfield    CLOUDY    75  70  84 SW6       29.89F
Taylorville    PTCLDY    72  68  87 S8        29.90F
$$

...REGIONAL REPORTS...


CITY           SKY/WX    TMP DP  RH WIND       PRES   REMARKS
Chicago O`Hare CLOUDY    77  67  71 SW13G21   29.82F
Kankakee       CLOUDY    75  66  73 SW9       29.89S
Moline         CLOUDY    76  65  68 S9        29.79F
Mount Sterling PTCLDY    72  66  82 S8        29.86F
Mount Vernon   CLOUDY    73  69  87 S6        29.94F
Pittsfield     PTCLDY    73  68  83 S6        29.89F
Quincy         CLOUDY    74  66  76 S9        29.86F
Rockford       CLOUDY    73  67  81 S6        29.82R
$$


CITY           SKY/WX    TMP DP  RH WIND       PRES   REMARKS
Burlington     CLEAR     75  68  78 S13       29.81F
Cedar Rapids   CLEAR     72  67  84 S12       29.77S
Des Moines     PTCLDY    76  64  66 S13G24    29.72F
Kirksville     CLEAR     72  65  78 S9        29.84F
Ottumwa        CLOUDY    72  65  78 S10       29.79F
St Louis       MOCLDY    77  67  71 S7        29.90F
$$


CITY           SKY/WX    TMP DP  RH WIND       PRES   REMARKS
Terre Haute    PTCLDY    73  67  81 S6        29.95F
Evansville     CLOUDY    72  68  87 SE3       29.98S
Indianapolis   MOCLDY    74  67  78 SW10      29.96F
Lafayette      CLOUDY    74  69  85 SW6       29.92F
Madison        CLOUDY    72  64  76 S7        29.73F
Milwaukee      MOCLDY    68  61  78 S10       29.78F
$$





USA.gov is the U.S. government's official web portal to all federal, state and local government web resources and services.